Litchfield, MN

3:23 AM CDT on September 22, 2017 (GMT -0500)
Litchfield Municipal

Weather History for KLJF - April, 2013

Change the Weather History Date:

Monday, April 8, 2013

  Actual Average Record
Temperature  
Mean Temperature 40 °F -  
Max Temperature 44 °F 51 °F 80 °F (1988)
Min Temperature 37 °F 31 °F 8 °F (1997)
Degree Days  
Heating Degree Days 24    
Moisture  
Dew Point 40 °F    
Average Humidity 97    
Maximum Humidity 100    
Minimum Humidity 87    
Precipitation  
Precipitation 0.00 in - - ()
Sea Level Pressure  
Sea Level Pressure 29.82 in    
Wind  
Wind Speed 7 mph (NNE)    
Max Wind Speed 14 mph    
Max Gust Speed 18 mph    
Visibility 6 miles    
Events Fog , Rain    
Averages and records for this station are not official NWS values.
T = Trace of Precipitation, MM = Missing Value Source: NWS Daily Summary

Daily Weather History Graph

Daily Weather History Graph

Search for Another Location

Airport or City:

Trip Planner

Search our weather history database for the weather conditions in past years. The results will help you decide how hot, cold, wet, or windy it might be!

Date:

Astronomy

Apr. 08, 2013 Rise Set
Actual Time 6:45 AM CDT 7:55 PM CDT
Civil Twilight 6:15 AM CDT 8:25 PM CDT
Nautical Twilight 5:38 AM CDT 9:01 PM CDT
Astronomical Twilight 5:00 AM CDT 9:40 PM CDT
Moon 5:39 AM CDT (4/8) 6:27 PM CDT (4/8)
Length of Visible Light 14h 10m
Length of Day
13h 09m
Waning Crescent, 3% of the Moon is Illuminated
Apr 8
Waning Crescent
Apr 10
New
Apr 18
First Quarter
Apr 25
Full
May 2
Last Quarter

Hourly Weather History & Observations

Time (CDT) Temp. Windchill Dew Point Humidity Pressure Visibility Wind Dir Wind Speed Gust Speed Precip Events Conditions
12:13 AM 41.0 °F 35.8 °F 41.0 °F 100% 29.73 in 2.5 mi East 8.1 mph - N/A   Overcast
12:33 AM 41.0 °F 37.1 °F 41.0 °F 100% 29.72 in 2.0 mi East 5.8 mph - N/A   Overcast
12:52 AM 42.8 °F 39.3 °F 42.8 °F 100% 29.72 in 2.0 mi East 5.8 mph - N/A   Overcast
1:13 AM 42.8 °F 40.1 °F 42.8 °F 100% 29.72 in 1.8 mi East 4.6 mph - N/A   Overcast
1:33 AM 42.8 °F 38.6 °F 42.8 °F 100% 29.72 in 2.0 mi East 6.9 mph - N/A   Overcast
1:52 AM 42.8 °F 40.1 °F 42.8 °F 100% 29.71 in 2.0 mi East 4.6 mph - N/A   Overcast
2:13 AM 42.8 °F 41.1 °F 42.8 °F 100% 29.71 in 2.0 mi ENE 3.5 mph - N/A Rain Rain
2:33 AM 42.8 °F 41.1 °F 42.8 °F 100% 29.71 in 1.5 mi NE 3.5 mph - N/A Rain Light Rain
2:52 AM 42.8 °F 40.1 °F 42.8 °F 100% 29.71 in 1.5 mi ENE 4.6 mph - N/A Rain Rain
3:13 AM 41.0 °F 37.1 °F 41.0 °F 100% 29.70 in 0.8 mi NE 5.8 mph - N/A Rain Light Rain
3:33 AM 41.0 °F 36.4 °F 41.0 °F 100% 29.70 in 2.0 mi East 6.9 mph - N/A   Overcast
3:52 AM 41.0 °F 39.0 °F 41.0 °F 100% 29.70 in 1.5 mi NE 3.5 mph - N/A   Overcast
4:13 AM 41.0 °F 37.1 °F 41.0 °F 100% 29.69 in 0.5 mi ENE 5.8 mph - N/A Fog Fog
4:33 AM 39.2 °F 37.0 °F 39.2 °F 100% 29.70 in 0.5 mi NNE 3.5 mph - N/A Fog Fog
4:52 AM 39.2 °F 35.0 °F 39.2 °F 100% 29.69 in 0.5 mi NNE 5.8 mph - N/A Fog Fog
5:13 AM 39.2 °F 34.2 °F 39.2 °F 100% 29.68 in 0.8 mi NE 6.9 mph - N/A   Overcast
5:33 AM 39.2 °F 35.0 °F 39.2 °F 100% 29.68 in 0.8 mi NNE 5.8 mph - N/A   Overcast
5:52 AM 39.2 °F 35.0 °F 39.2 °F 100% 29.69 in 0.5 mi NNE 5.8 mph - N/A Fog Fog
6:13 AM 37.4 °F 32.8 °F 37.4 °F 100% 29.69 in 0.5 mi NNE 5.8 mph - N/A Fog Fog
6:33 AM 37.4 °F 32.1 °F 37.4 °F 100% 29.69 in 0.5 mi NNE 6.9 mph - N/A Fog Fog
6:52 AM 37.4 °F 32.1 °F 37.4 °F 100% 29.70 in 0.5 mi NNE 6.9 mph - N/A Fog Fog
7:13 AM 37.4 °F 32.8 °F 37.4 °F 100% 29.71 in 0.2 mi North 5.8 mph - N/A Fog Fog
7:33 AM 37.4 °F 30.8 °F 37.4 °F 100% 29.73 in 0.2 mi NNE 9.2 mph - N/A Fog Fog
7:52 AM 37.4 °F 30.8 °F 37.4 °F 100% 29.74 in 0.5 mi NNE 9.2 mph - N/A Fog Fog
8:13 AM 37.4 °F 31.4 °F 37.4 °F 100% 29.74 in 1.0 mi North 8.1 mph - N/A   Overcast
8:33 AM 37.4 °F 32.1 °F 37.4 °F 100% 29.75 in 1.5 mi NNE 6.9 mph - N/A   Drizzle
8:52 AM 37.4 °F 31.4 °F 37.4 °F 100% 29.75 in 1.8 mi NE 8.1 mph - N/A   Drizzle
9:13 AM 37.4 °F 33.8 °F 37.4 °F 100% 29.76 in 2.5 mi NNE 4.6 mph - N/A   Overcast
9:33 AM 37.4 °F 33.8 °F 37.4 °F 100% 29.76 in 3.0 mi NNE 4.6 mph - N/A   Overcast
9:53 AM 39.2 °F 34.2 °F 39.2 °F 100% 29.75 in 4.0 mi NE 6.9 mph - N/A   Overcast
10:13 AM 39.2 °F 33.6 °F 39.2 °F 100% 29.76 in 4.0 mi NE 8.1 mph - N/A   Overcast
10:33 AM 39.2 °F 33.6 °F 39.2 °F 100% 29.76 in 4.0 mi NE 8.1 mph - N/A   Overcast
10:53 AM 39.2 °F 34.2 °F 39.2 °F 100% 29.77 in 4.0 mi NE 6.9 mph - N/A   Overcast
11:13 AM 39.2 °F 34.2 °F 39.2 °F 100% 29.77 in 3.0 mi NE 6.9 mph - N/A   Overcast
11:33 AM 41.0 °F 36.4 °F 41.0 °F 100% 29.78 in 5.0 mi NNE 6.9 mph - N/A   Overcast
11:53 AM 42.8 °F 37.5 °F 42.8 °F 100% 29.78 in 5.0 mi North 9.2 mph - N/A   Overcast
12:13 PM 42.8 °F 37.0 °F 42.8 °F 100% 29.79 in 10.0 mi NNE 10.4 mph - N/A   Overcast
12:33 PM 42.8 °F 38.6 °F 42.8 °F 100% 29.80 in 10.0 mi NE 6.9 mph - N/A   Overcast
12:52 PM 42.8 °F 37.5 °F 42.8 °F 100% 29.80 in 10.0 mi NNE 9.2 mph - N/A   Overcast
1:13 PM 42.8 °F 39.3 °F 42.8 °F 100% 29.81 in 10.0 mi NNE 5.8 mph - N/A   Overcast
1:33 PM 42.8 °F 38.6 °F 42.8 °F 100% 29.82 in 10.0 mi NNE 6.9 mph - N/A   Overcast
1:53 PM 42.8 °F 38.0 °F 42.8 °F 100% 29.83 in 10.0 mi NNE 8.1 mph - N/A   Overcast
2:13 PM 42.8 °F 39.3 °F 42.8 °F 100% 29.83 in 10.0 mi NNE 5.8 mph - N/A   Overcast
2:33 PM 42.8 °F 38.0 °F 42.8 °F 100% 29.83 in 10.0 mi NNE 8.1 mph - N/A   Overcast
2:53 PM 44.6 °F 40.2 °F 42.8 °F 93% 29.82 in 10.0 mi NE 8.1 mph - N/A   Overcast
3:12 PM 42.8 °F 37.0 °F 42.8 °F 100% 29.82 in 10.0 mi NNE 10.4 mph - N/A   Overcast
3:33 PM 42.8 °F 38.0 °F 42.8 °F 100% 29.83 in 10.0 mi NNE 8.1 mph - N/A   Overcast
3:52 PM 44.6 °F 40.2 °F 42.8 °F 93% 29.84 in 10.0 mi North 8.1 mph - N/A   Overcast
4:13 PM 44.6 °F 39.7 °F 42.8 °F 93% 29.85 in 10.0 mi NNE 9.2 mph - N/A   Overcast
4:33 PM 42.8 °F 37.0 °F 42.8 °F 100% 29.86 in 10.0 mi North 10.4 mph - N/A   Overcast
4:52 PM 42.8 °F 37.5 °F 42.8 °F 100% 29.88 in 10.0 mi North 9.2 mph - N/A   Overcast
5:13 PM 42.8 °F 38.0 °F 41.0 °F 93% 29.90 in 10.0 mi North 8.1 mph - N/A   Overcast
5:33 PM 42.8 °F 37.0 °F 41.0 °F 93% 29.90 in 10.0 mi North 10.4 mph - N/A   Overcast
5:53 PM 42.8 °F 37.0 °F 41.0 °F 93% 29.91 in 10.0 mi North 10.4 mph - N/A   Overcast
6:13 PM 42.8 °F 36.6 °F 39.2 °F 87% 29.93 in 10.0 mi NNE 11.5 mph - N/A   Overcast
6:33 PM 42.8 °F 38.0 °F 39.2 °F 87% 29.94 in 10.0 mi North 8.1 mph - N/A   Overcast
6:53 PM 42.8 °F 35.8 °F 39.2 °F 87% 29.94 in 10.0 mi NNE 13.8 mph - N/A   Overcast
7:13 PM 42.8 °F 37.5 °F 39.2 °F 87% 29.96 in 10.0 mi NNE 9.2 mph - N/A   Overcast
7:33 PM 42.8 °F 38.0 °F 39.2 °F 87% 29.97 in 10.0 mi NNE 8.1 mph - N/A   Overcast
7:52 PM 42.8 °F 35.8 °F 39.2 °F 87% 29.98 in 10.0 mi NNE 13.8 mph 18.4 mph N/A   Overcast
8:13 PM 42.8 °F 36.6 °F 39.2 °F 87% 29.98 in 10.0 mi NNE 11.5 mph - N/A   Overcast
8:32 PM 42.8 °F 36.2 °F 39.2 °F 87% 29.98 in 10.0 mi NNE 12.7 mph - N/A   Overcast
8:53 PM 41.0 °F 35.2 °F 39.2 °F 93% 29.98 in 10.0 mi NNE 9.2 mph - N/A   Overcast
9:13 PM 41.0 °F 34.3 °F 37.4 °F 87% 29.99 in 10.0 mi NNE 11.5 mph 16.1 mph N/A   Overcast
9:32 PM 41.0 °F 34.7 °F 37.4 °F 87% 30.00 in 10.0 mi North 10.4 mph - N/A   Overcast
9:53 PM 39.2 °F 32.0 °F 37.4 °F 93% 30.01 in 10.0 mi NNE 11.5 mph - N/A   Overcast
10:13 PM 39.2 °F 33.0 °F 37.4 °F 93% 30.03 in 10.0 mi NNE 9.2 mph - N/A   Overcast
10:32 PM 39.2 °F 33.6 °F 37.4 °F 93% 30.04 in 10.0 mi NNE 8.1 mph - N/A   Overcast
10:53 PM 39.2 °F 34.2 °F 37.4 °F 93% 30.05 in 10.0 mi NNE 6.9 mph - N/A   Overcast
11:13 PM 39.2 °F 34.2 °F 37.4 °F 93% 30.06 in 10.0 mi North 6.9 mph - N/A   Overcast
11:32 PM 39.2 °F 32.5 °F 37.4 °F 93% 30.05 in 10.0 mi NNE 10.4 mph - N/A   Overcast
11:53 PM 39.2 °F 31.6 °F 37.4 °F 93% 30.04 in 10.0 mi NNE 12.7 mph - N/A   Overcast